Location: Unspecified
(0.0000°N, 0.0000°E)
Time: 12:32:03
(UTC+00:00)

Transit 4A - Pass Details

Date: 15 December 2018
Orbit: 862 x 982 km, 66.8° (Epoch: 15 July)

Event Time Altitude Azimuth Distance (km) Brightness Sun altitude
Rises 13:04:47 0° 356° (N) 3,591 10.7 61.2°
Reaches altitude 10° 13:07:29 10° 5° (N) 2,667 10.2 60.8°
Maximum altitude 13:13:11 37° 71° (ENE) 1,452 9.2 60.0°
Drops below altitude 10° 13:19:00 10° 136° (SE) 2,726 10.5 59.1°
Sets 13:21:46 0° 144° (SE) 3,682 11.1 58.6°
